Voltar ao catálogo

STARLINK-30330

AtivoComunicaçõesVLEO
NORAD 57636·PAYLOAD·🇺🇸 United States

Lançado Aug 17, 2023 de Cape Canaveral Space Force Station

Loading…

Próximas Passagens (próximas 24 horas)

TLE

AtualizadoSource: CelesTrak SupGP

Época: Sep 15, 2026, 01:47 UTC

1 57636C 23122E   26258.07479167  .00054680  00000+0  19805-2 0  2586
2 57636  42.9999 103.3011 0001496 276.3770 201.4556 15.27551065    13

Acompanhe STARLINK-30330 em tempo real com AllMySat

Download on the App Store